Terminal Aerodrome Forecast
Issued by NWS

Home | Current Version | Previous Version | Text Only | Print | Product List | Glossary On
Versions: 1 2 3 4 5 6 7 8 9 10 11 12 13 14 15 16 17 18 19 20
000
FTUS46 KLOX 230500
TAFPMD
TAF
KPMD 230530Z 2306/2406 26015G25KT P6SM SCT250
     FM230700 29012KT P6SM SKC
     FM231100 24006KT P6SM SKC
     FM231800 04009KT P6SM SKC
     FM232100 06014G24KT P6SM SKC
     FM240500 07008KT P6SM SKC=

USA.gov is the U.S. government's official web portal to all federal, state and local government web resources and services.